Date String (YYYY-MM-DD hh:mm:ss) UTC,Instrument flags,Ambient pressure (hPa),Sample flow (lpm),Bypass flow (lpm),Sample temperature (°C),Ambient temperature (°C),ASC tube jacket temperature (°C),LED temperature (°C),Box temperature (°C),Sample RH (%),Span deviation,Mass concentration (μg/m³),Mass concentration (μg/m³),Mass concentration (μg/m³)
DateTimeUTC,F1_M11,P_M11,Q1_M11,Q2_M11,T1_M11,T2_M11,T3_M11,T4_M11,T5_M11,U1_M11,ZSPAN_M11,X2_M11,X0_M11,X1_M11
2021-12-26 05:00:00,,0817.3,5.00,0.00,22.4,21.5,00.0,31.4,24.0,09.8,0000.0,0001.45,0002.37,0001.28
2021-12-26 05:01:00,,0817.2,5.01,0.00,22.4,21.5,00.0,31.4,24.0,09.8,0000.0,0001.48,0002.25,0001.28
2021-12-26 05:02:00,,0817.2,5.00,0.00,22.4,21.5,00.0,31.4,24.0,09.7,0000.0,0001.49,0002.31,0001.27
2021-12-26 05:03:00,,0817.2,4.99,0.00,22.4,21.5,00.0,31.4,24.0,09.7,0000.0,0001.47,0002.29,0001.26
2021-12-26 05:04:00,,0817.1,5.00,0.00,22.4,21.5,00.0,31.4,24.0,09.8,0000.0,0001.45,0002.24,0001.25
2021-12-26 05:05:00,,0817.2,5.01,0.00,22.4,21.4,00.0,31.4,24.0,09.8,0000.0,0001.45,0002.25,0001.25
2021-12-26 05:06:00,,0817.2,5.00,0.00,22.3,21.4,00.0,31.4,24.0,09.8,0000.0,0001.47,0002.84,0001.27
2021-12-26 05:07:00,,0817.2,5.00,0.00,22.3,21.4,00.0,31.4,23.9,09.8,0000.0,0001.49,0002.85,0001.30
2021-12-26 05:08:00,,0817.2,5.01,0.00,22.3,21.4,00.0,31.4,24.0,09.8,0000.0,0001.52,0002.94,0001.33
2021-12-26 05:09:00,,0817.2,5.00,0.00,22.3,21.4,00.0,31.4,23.9,09.7,0000.0,0001.52,0002.74,0001.33
2021-12-26 05:10:00,,0817.2,4.99,0.00,22.3,21.4,00.0,31.4,23.9,09.7,0000.0,0001.52,0002.68,0001.32
2021-12-26 05:11:00,,0817.2,5.00,0.00,22.3,21.3,00.0,31.4,23.9,09.7,0000.0,0001.50,0002.65,0001.30
2021-12-26 05:12:00,,0817.2,5.00,0.00,22.3,21.3,00.0,31.4,23.9,09.6,0000.0,0001.48,0002.61,0001.29
2021-12-26 05:13:00,,0817.2,4.99,0.00,22.3,21.3,00.0,31.4,23.9,09.6,0000.0,0001.44,0002.49,0001.29
2021-12-26 05:14:00,,0817.2,5.01,0.00,22.3,21.4,00.0,31.4,23.9,09.7,0000.0,0001.47,0002.56,0001.30
2021-12-26 05:15:00,,0817.2,5.00,0.00,22.3,21.3,00.0,31.3,23.9,09.6,0000.0,0001.48,0002.61,0001.30
2021-12-26 05:16:00,,0817.1,4.99,0.00,22.3,21.4,00.0,31.3,23.9,09.6,0000.0,0001.46,0002.57,0001.28
2021-12-26 05:17:00,,0817.1,5.00,0.00,22.3,21.3,00.0,31.3,23.9,09.6,0000.0,0001.41,0001.94,0001.24
2021-12-26 05:18:00,,0817.1,5.00,0.00,22.3,21.3,00.0,31.3,23.9,09.6,0000.0,0001.38,0001.93,0001.20
2021-12-26 05:19:00,,0817.1,4.99,0.00,22.3,21.3,00.0,31.3,23.9,09.6,0000.0,0001.34,0001.81,0001.16
2021-12-26 05:20:00,,0817.1,5.02,0.00,22.3,21.4,00.0,31.3,23.9,09.6,0000.0,0001.32,0001.74,0001.15
2021-12-26 05:21:00,,0817.0,4.99,0.00,22.3,21.3,00.0,31.3,23.9,09.6,0000.0,0001.32,0001.74,0001.15
2021-12-26 05:22:00,,0817.1,5.01,0.00,22.3,21.6,00.0,31.3,24.0,09.5,0000.0,0001.33,0001.80,0001.13
2021-12-26 05:23:00,,0817.0,4.99,0.00,22.4,22.3,00.0,31.4,24.3,09.4,0000.0,0001.29,0001.76,0001.11
2021-12-26 05:24:00,,0817.0,5.00,0.00,22.5,23.0,00.0,31.4,24.5,09.4,0000.0,0001.28,0001.74,0001.10
2021-12-26 05:25:00,,0817.0,4.99,0.00,22.6,22.9,00.0,31.4,24.6,09.3,0000.0,0001.27,0001.68,0001.09
2021-12-26 05:26:00,,0817.0,5.01,0.00,22.6,22.7,00.0,31.5,24.5,09.3,0000.0,0001.25,0001.64,0001.08
2021-12-26 05:27:00,,0817.0,4.99,0.00,22.6,22.5,00.0,31.5,24.5,09.2,0000.0,0001.24,0001.61,0001.07
2021-12-26 05:28:00,,0817.0,5.01,0.00,22.6,22.4,00.0,31.5,24.4,09.2,0000.0,0001.21,0001.56,0001.06
2021-12-26 05:29:00,,0817.0,5.00,0.00,22.6,22.3,00.0,31.5,24.4,09.3,0000.0,0001.18,0001.66,0001.05
2021-12-26 05:30:00,,0817.0,4.98,0.00,22.6,22.2,00.0,31.5,24.4,09.3,0000.0,0001.19,0002.40,0001.05
2021-12-26 05:31:00,,0817.0,5.01,0.00,22.6,22.1,00.0,31.5,24.4,09.2,0000.0,0001.17,0002.37,0001.04
2021-12-26 05:32:00,,0816.9,5.00,0.00,22.6,22.0,00.0,31.5,24.3,09.2,0000.0,0001.17,0002.84,0001.02
2021-12-26 05:33:00,,0816.8,5.01,0.00,22.6,22.0,00.0,31.5,24.3,09.2,0000.0,0001.14,0003.35,0001.01
2021-12-26 05:34:00,,0816.8,5.00,0.00,22.6,21.9,00.0,31.5,24.2,09.2,0000.0,0001.15,0003.38,0001.01
2021-12-26 05:35:00,,0816.8,5.00,0.00,22.6,21.9,00.0,31.5,24.2,09.2,0000.0,0001.17,0003.40,0001.02
2021-12-26 05:36:00,,0816.8,5.00,0.00,22.6,21.9,00.0,31.5,24.3,09.2,0000.0,0001.17,0003.41,0001.02
2021-12-26 05:37:00,,0816.8,4.98,0.00,22.5,21.8,00.0,31.5,24.2,09.2,0000.0,0001.20,0003.46,0001.03
2021-12-26 05:38:00,,0816.7,5.02,0.00,22.5,21.8,00.0,31.5,24.2,09.2,0000.0,0001.21,0003.48,0001.02
2021-12-26 05:39:00,,0817.1,4.99,0.00,22.5,21.8,00.0,31.5,24.2,09.1,0000.0,0001.23,0003.51,0001.03
2021-12-26 05:40:00,,0816.8,4.99,0.00,22.5,21.8,00.0,31.5,24.2,09.1,0000.0,0001.23,0003.52,0001.03
2021-12-26 05:41:00,,0816.6,5.00,0.00,22.5,21.7,00.0,31.5,24.2,09.1,0000.0,0001.22,0002.79,0001.03
2021-12-26 05:42:00,,0816.6,5.00,0.00,22.5,21.7,00.0,31.5,24.1,09.1,0000.0,0001.22,0002.68,0001.03
2021-12-26 05:43:00,,0816.7,5.00,0.00,22.5,21.7,00.0,31.5,24.1,09.1,0000.0,0001.20,0003.69,0001.03
2021-12-26 05:44:00,,0816.7,5.01,0.00,22.5,21.6,00.0,31.5,24.1,09.0,0000.0,0001.19,0003.86,0001.03
2021-12-26 05:45:00,,0816.8,4.98,0.00,22.4,21.6,00.0,31.5,24.1,09.0,0000.0,0001.19,0004.47,0001.04
2021-12-26 05:46:00,,0816.7,5.02,0.00,22.4,21.6,00.0,31.5,24.1,09.0,0000.0,0001.19,0004.96,0001.04
2021-12-26 05:47:00,,0816.7,4.98,0.00,22.4,21.6,00.0,31.5,24.1,09.0,0000.0,0001.18,0005.10,0001.04
2021-12-26 05:48:00,,0816.6,5.00,0.00,22.4,21.6,00.0,31.5,24.1,09.0,0000.0,0001.14,0005.02,0001.03
2021-12-26 05:49:00,,0816.5,5.00,0.00,22.4,21.6,00.0,31.5,24.1,09.0,0000.0,0001.12,0004.98,0001.03
2021-12-26 05:50:00,,0816.5,5.01,0.00,22.4,21.6,00.0,31.5,24.1,09.0,0000.0,0001.12,0005.03,0001.02
2021-12-26 05:51:00,,0816.5,5.00,0.00,22.4,21.6,00.0,31.5,24.0,09.0,0000.0,0001.13,0005.06,0001.02
2021-12-26 05:52:00,,0816.6,5.00,0.00,22.4,21.5,00.0,31.4,24.0,09.0,0000.0,0001.13,0005.11,0001.01
2021-12-26 05:53:00,,0816.5,4.99,0.00,22.4,21.5,00.0,31.4,24.1,09.0,0000.0,0001.17,0005.16,0001.01
2021-12-26 05:54:00,,0816.5,5.00,0.00,22.4,21.5,00.0,31.4,24.1,09.0,0000.0,0001.18,0004.19,0001.01
2021-12-26 05:55:00,,0816.5,5.00,0.00,22.4,21.5,00.0,31.4,24.1,09.0,0000.0,0001.22,0005.13,0001.01
2021-12-26 05:56:00,,0816.5,5.01,0.00,22.4,21.5,00.0,31.4,24.0,09.1,0000.0,0001.23,0005.44,0001.01
2021-12-26 05:57:00,,0816.5,5.00,0.00,22.4,21.5,00.0,31.4,24.0,09.1,0000.0,0001.21,0005.15,0001.01
2021-12-26 05:58:00,,0816.4,5.01,0.00,22.4,21.5,00.0,31.4,24.0,09.0,0000.0,0001.22,0005.03,0001.00
2021-12-26 05:59:00,,0816.4,4.98,0.00,22.4,21.5,00.0,31.4,24.0,09.0,0000.0,0001.23,0005.08,0001.01
